GFSFLT2_sfc_temp_195.txt.gz
Temp
54 56 55 55 56 57 57 57 57 57 58 57 55 55 55 55 55 56 56 55 55 55 55 56 58 59 59
50 50 51 53 54 53 55 56 55 56 57 56 55 54 54 54 54 54 54 54 53 53 53 53 55 57 59
46 50 51 51 50 51 51 51 53 53 55 55 54 54 53 54 54 53 53 53 52 52 51 51 52 54 57
46 45 44 46 46 44 44 48 48 52 53 53 54 53 53 53 53 52 51 52 52 51 51 50 50 52 54
43 42 41 42 42 45 43 44 46 47 47 48 50 50 51 52 50 50 50 51 51 51 51 50 49 50 52
42 41 42 43 44 43 42 40 38 45 41 42 46 46 48 50 52 51 51 51 51 50 50 50 49 49 50
40 41 41 44 43 41 41 40 40 44 40 39 42 42 47 51 51 49 49 50 50 50 49 49 49 48 48
44 44 45 46 44 43 41 40 40 41 41 35 41 41 43 46 51 49 48 48 49 49 49 49 48 48 48
48 46 46 46 46 42 37 35 34 36 39 37 38 38 39 42 44 46 46 46 47 48 49 48 47 47 45
45 45 46 44 43 43 39 35 34 33 38 35 36 35 34 36 37 40 38 44 46 47 48 48 47 41 39
41 42 43 42 42 42 40 37 34 33 37 35 33 34 33 34 34 35 37 39 40 43 48 48 47 45 38
38 38 37 37 38 38 39 39 40 37 38 36 32 33 32 33 33 33 35 36 37 36 38 46 47 47 47
35 35 34 34 35 35 35 36 35 36 37 34 33 33 32 32 32 32 32 32 33 34 36 37 39 40 39
35 34 33 32 33 34 34 34 33 34 34 34 33 33 32 32 32 32 33 32 31 31 33 34 37 39 39
34 33 34 34 33 33 32 30 31 32 33 34 33 33 33 32 32 32 32 32 33 32 31 30 33 35 37
33 31 31 31 31 30 31 30 29 31 32 33 33 32 31 32 35 32 32 32 33 32 32 31 30 33 35
32 32 32 33 32 30 29 28 28 31 33 33 32 31 29 28 32 36 32 32 32 31 32 32 32 33 34

GFSFLT2_sfc_temp_198.txt.gz
Temp
45 46 46 47 50 48 49 49 48 54 56 55 56 56 56 55 55 56 56 57 57 57 56 56 57 58 59
45 42 44 45 44 43 48 52 49 53 54 54 55 55 55 55 54 54 54 55 55 55 55 54 54 55 57
42 43 42 41 42 45 46 46 50 51 52 54 54 54 55 55 54 53 53 53 53 53 53 52 52 53 55
41 40 39 41 39 39 40 44 45 50 50 51 52 52 53 54 54 52 51 52 53 53 52 51 50 51 53
38 39 40 42 40 42 41 40 42 45 46 43 43 43 47 49 50 50 50 51 52 52 52 51 50 50 51
39 38 39 41 42 39 40 38 35 41 38 40 42 42 43 44 48 50 50 50 51 51 51 51 50 49 50
38 38 38 41 40 37 36 34 36 42 40 38 42 41 43 46 49 50 51 50 50 50 50 50 49 49 49
41 40 40 41 38 39 37 35 37 41 41 35 40 39 43 42 46 48 50 49 49 50 49 49 49 48 48
46 46 46 47 46 38 34 33 33 36 38 36 38 37 39 40 43 46 49 48 47 48 49 49 48 48 46
39 40 42 40 45 38 34 33 32 32 36 34 35 35 33 36 35 38 37 44 45 46 48 48 48 43 37
36 36 37 36 36 36 36 35 33 33 38 35 33 33 32 33 34 35 36 37 39 42 47 48 48 44 38
32 31 31 32 32 34 35 35 34 33 37 37 32 32 32 32 32 33 33 35 36 34 36 45 47 46 44
29 29 28 32 32 31 32 32 30 33 37 35 34 33 32 31 32 33 33 32 33 34 35 37 39 41 40
27 27 29 32 28 27 24 26 23 28 34 34 34 33 32 32 32 32 33 32 32 32 33 34 37 38 39
27 29 29 27 31 32 30 25 20 21 28 33 34 33 33 32 30 32 32 32 33 32 32 32 34 36 37
32 30 30 29 27 31 30 28 27 23 24 30 33 32 31 31 35 31 32 32 32 32 31 31 31 33 35
30 28 29 30 31 30 30 30 27 26 26 31 31 30 28 27 30 37 31 32 31 31 31 31 31 32 34

GFSFLT2_sfc_temp_201.txt.gz
Temp
42 43 42 43 46 46 46 45 45 52 53 54 54 54 54 55 56 56 56 56 57 58 58 58 58 57 57
40 41 40 43 41 44 48 49 47 50 52 53 53 54 54 54 54 54 54 54 55 55 56 57 56 56 56
38 40 39 40 41 40 41 42 46 49 51 52 52 53 53 53 52 53 53 54 53 53 54 54 55 54 55
37 39 36 39 37 37 38 42 41 46 47 48 50 50 51 51 51 49 49 51 53 53 53 52 52 52 53
35 37 37 37 36 38 39 40 39 39 41 41 40 42 44 47 48 48 49 50 51 52 52 52 51 51 51
33 34 35 36 38 37 36 34 32 37 35 38 39 42 43 44 47 48 48 49 50 51 51 51 51 50 50
34 34 35 37 37 35 34 33 34 38 36 36 37 38 43 45 46 47 47 48 49 50 50 50 50 50 49
36 37 36 37 36 37 36 37 33 35 37 31 34 38 41 41 45 45 46 47 47 49 48 48 49 49 49
44 44 45 45 44 38 32 28 31 30 34 33 32 32 36 38 41 44 45 44 45 48 48 48 48 48 47
36 37 39 37 42 36 32 32 33 32 33 33 34 34 32 36 36 39 38 42 41 43 46 45 47 45 40
33 32 33 33 33 34 34 34 32 29 33 32 33 33 32 32 34 35 37 36 36 38 41 44 45 45 39
30 29 29 30 30 35 35 33 32 32 32 32 32 32 32 31 31 34 35 36 35 34 36 41 43 45 44
29 28 27 28 30 32 32 31 29 30 34 29 33 33 32 31 31 32 33 34 34 32 34 35 37 39 39
28 27 26 25 26 26 22 26 19 23 29 29 31 32 32 32 32 31 33 31 33 33 33 34 36 38 38
31 31 31 30 27 24 23 20 22 18 19 25 28 33 33 32 30 32 31 32 33 33 32 32 33 35 38
29 30 31 27 24 22 25 22 22 23 20 22 25 30 32 30 35 30 31 32 32 32 31 30 31 33 35
25 25 26 27 27 20 24 28 26 26 24 21 17 28 24 25 29 37 31 32 32 31 31 30 29 31 33

GFSFLT2_sfc_temp_204.txt.gz
Temp
39 40 39 40 43 45 46 44 43 50 52 52 52 53 53 54 54 54 54 55 56 57 58 58 60 60 59
37 36 37 39 39 38 44 47 44 47 50 51 51 52 52 53 53 53 53 53 53 55 55 56 57 58 59
35 36 36 37 37 38 38 39 44 47 49 49 50 50 51 50 51 50 50 50 51 52 52 53 54 56 57
35 34 34 36 34 34 36 39 40 45 46 46 48 48 48 49 49 48 48 48 49 50 51 51 52 53 54
32 32 33 35 34 37 35 36 37 38 38 38 38 41 41 45 45 46 48 48 48 49 50 51 52 52 52
30 30 31 32 34 34 33 34 33 36 32 35 36 38 39 40 45 47 47 47 48 48 48 49 50 51 51
31 31 31 33 34 32 32 32 33 37 35 34 35 34 38 42 44 45 45 46 46 46 47 48 48 50 49
34 34 34 35 35 35 33 33 37 39 33 31 31 32 35 38 43 44 45 46 46 46 45 46 48 48 49
44 44 44 44 43 35 31 31 32 35 35 33 31 29 32 36 37 43 44 44 44 44 43 43 45 47 46
35 36 38 35 41 34 30 30 32 30 34 31 30 29 27 30 32 39 35 41 43 42 41 42 43 43 43
33 32 31 31 31 32 31 33 31 30 32 30 27 31 30 30 30 37 36 37 38 38 39 40 41 42 40
30 31 29 31 30 30 32 32 33 31 33 30 26 23 27 28 29 34 35 36 36 35 34 37 39 42 43
30 31 30 30 29 28 30 30 28 29 33 27 25 28 30 29 29 31 33 34 35 33 34 33 33 37 35
30 31 27 29 30 27 20 20 18 25 29 27 26 26 29 31 32 31 32 30 33 33 33 33 33 37 37
28 29 30 31 30 25 20 16 23 20 20 24 27 29 31 31 30 31 31 32 33 33 32 32 33 33 36
30 30 30 28 26 23 22 16 17 21 19 19 16 25 31 27 35 30 31 31 33 33 32 30 30 32 33
29 29 27 26 28 22 21 19 22 23 21 18 13 15 23 23 26 37 30 32 32 31 31 31 30 31 32

GFSFLT2_sfc_temp_207.txt.gz
Temp
37 38 37 38 40 40 42 42 44 48 51 51 51 52 52 52 52 53 53 53 54 54 55 56 58 57 58
34 34 35 37 37 36 42 45 42 46 49 50 50 51 51 51 51 51 51 51 51 51 52 53 54 56 57
33 34 34 35 35 35 36 37 42 46 48 48 49 49 50 49 49 49 49 49 49 50 50 51 52 53 54
32 31 32 34 32 31 32 36 37 42 43 45 47 47 47 48 47 47 47 47 49 49 49 49 49 50 52
31 30 30 30 30 32 32 34 36 36 36 37 36 39 40 43 43 44 46 47 47 48 48 48 48 49 50
29 29 29 29 31 30 30 33 31 33 31 37 36 36 38 38 43 46 46 46 46 48 48 48 47 47 48
30 30 30 31 31 30 29 31 31 35 37 34 34 32 36 39 43 44 45 45 46 47 46 46 47 47 47
33 33 32 34 32 34 35 30 31 33 38 31 32 33 33 37 42 43 44 45 45 45 45 45 45 45 45
43 44 44 44 42 34 29 27 29 31 37 32 32 30 31 34 35 41 43 43 43 43 44 44 44 44 43
32 34 38 35 40 34 30 28 29 29 31 28 29 27 27 29 30 35 36 41 43 43 43 42 41 38 39
31 31 31 31 32 32 32 27 31 30 31 31 23 27 23 28 29 33 33 34 35 38 41 40 39 39 36
30 30 30 30 31 31 31 30 30 30 31 30 29 27 26 27 26 31 33 36 34 33 35 37 39 39 39
30 30 29 31 30 28 30 30 28 28 32 26 26 23 24 27 27 29 31 33 34 33 34 34 33 34 32
29 30 28 24 27 30 28 24 17 22 28 25 21 20 17 26 30 29 31 29 33 33 33 34 34 34 33
30 30 29 29 30 31 26 21 21 17 21 23 26 24 24 26 26 27 27 31 33 32 32 32 33 33 33
30 29 30 30 29 26 25 21 17 17 18 18 14 23 22 26 33 25 30 30 32 33 32 30 31 33 34
29 28 27 26 28 21 24 25 17 18 20 15 15 20 18 18 25 35 20 28 31 31 31 31 30 32 33

GFSFLT2_sfc_temp_210.txt.gz
Temp
35 36 35 36 38 38 40 38 39 47 49 50 50 51 51 51 52 52 51 52 52 53 53 53 54 55 56
32 33 33 35 35 34 40 42 38 44 47 49 49 49 50 50 50 50 50 50 50 50 51 52 52 53 53
30 32 33 33 33 34 34 34 39 44 45 46 47 48 48 48 48 48 48 47 48 49 49 50 51 51 51
29 30 30 33 31 30 30 32 33 40 42 43 44 45 45 45 45 45 45 46 48 48 48 48 49 49 50
29 29 29 29 29 30 29 30 32 34 32 33 36 37 38 42 42 43 45 46 47 47 48 49 48 48 48
28 29 29 28 29 29 29 27 31 33 30 34 34 34 36 37 42 44 45 45 45 46 47 47 47 47 47
29 29 29 30 30 29 28 27 32 34 30 30 31 32 35 38 42 43 43 44 45 45 45 46 45 46 46
31 32 32 33 31 33 35 34 31 30 31 27 31 32 33 35 40 42 43 43 43 43 44 44 44 45 44
43 43 43 43 42 32 31 30 30 28 30 29 30 29 30 33 33 40 41 41 41 42 43 44 43 43 42
32 34 36 34 40 34 30 30 30 26 30 30 29 26 28 28 28 32 31 38 40 40 41 41 42 39 38
31 32 32 30 31 31 31 30 29 29 31 26 19 24 29 27 26 28 29 32 35 37 39 40 40 40 36
29 29 29 29 30 30 30 30 31 31 31 28 17 23 27 26 26 28 30 32 34 34 35 38 39 39 39
30 29 29 30 30 28 29 29 30 30 32 26 22 21 24 25 24 26 28 30 31 33 34 34 34 34 33
28 29 29 24 27 28 24 24 24 24 29 28 20 16 16 21 23 26 28 26 29 33 33 34 35 35 34
29 29 30 30 31 32 30 25 22 16 18 24 26 22 22 22 24 25 25 25 31 31 31 32 33 34 33
29 29 28 28 27 25 24 18 19 18 19 16 12 18 19 24 30 24 24 24 28 29 31 29 30 34 34
27 28 28 28 27 24 25 24 22 23 18 14 9 17 12 16 23 35 19 24 26 27 28 30 29 31 32

GFSFLT2_sfc_temp_213.txt.gz
Temp
44 46 45 46 47 48 48 48 49 47 48 49 49 50 50 50 51 51 51 51 52 52 52 53 54 54 55
41 42 42 45 45 44 46 48 47 46 47 48 48 48 48 48 48 49 48 49 49 49 50 51 52 52 53
38 41 42 44 43 44 44 45 46 45 46 46 46 47 47 47 47 46 46 46 47 48 49 49 50 51 52
38 38 39 42 41 39 40 43 42 45 45 45 45 45 45 45 45 44 44 46 47 47 47 48 48 50 50
38 38 38 39 38 40 38 40 41 43 42 43 44 44 45 45 44 43 45 45 45 46 47 47 48 48 48
37 36 38 38 39 38 37 36 33 45 40 41 44 42 44 45 44 44 44 45 45 45 45 45 45 46 47
37 38 37 39 39 37 37 37 36 41 39 36 42 39 43 44 43 43 43 44 44 44 43 44 44 45 45
40 39 40 40 39 38 37 36 37 39 40 32 41 39 42 42 42 42 42 43 43 42 43 43 43 43 44
42 43 43 43 43 41 35 34 32 36 41 35 37 36 39 39 42 40 41 41 41 41 41 42 42 42 41
40 40 40 40 40 39 37 32 32 31 39 33 35 34 31 38 38 40 39 40 40 41 41 41 42 39 38
37 38 38 38 38 39 38 35 31 31 38 35 31 33 31 31 35 37 38 38 38 39 40 40 40 39 36
34 34 34 34 35 36 37 36 36 34 37 36 31 30 29 28 28 35 36 37 38 36 37 38 39 39 40
31 32 33 34 34 33 34 34 33 34 36 33 31 31 28 25 26 29 31 34 36 34 35 35 35 36 34
30 31 32 32 31 33 32 33 31 32 33 32 32 28 26 28 29 27 31 29 34 34 35 35 37 37 37
30 30 30 30 30 32 31 31 28 28 29 32 32 30 29 27 26 30 31 31 33 33 33 32 35 36 37
29 28 28 28 28 31 31 28 27 28 28 30 28 27 30 32 32 29 31 31 33 33 32 30 31 35 37
28 28 28 29 29 28 28 27 27 28 28 28 26 24 24 23 32 35 30 31 31 30 32 31 29 32 35

GFSFLT2_sfc_temp_219.txt.gz
Temp
48 49 47 46 48 49 49 48 49 52 52 51 50 50 50 50 50 50 50 50 50 50 50 51 52 53 53
44 44 44 45 46 45 48 51 48 51 51 50 50 50 49 49 49 49 48 48 48 48 49 50 50 51 51
41 43 43 44 43 44 45 45 49 50 51 50 50 49 49 49 49 49 48 47 46 47 48 48 49 49 49
40 40 42 43 42 40 40 43 43 48 49 49 49 49 49 50 49 48 48 47 47 47 47 47 47 47 48
37 38 38 39 38 40 39 40 41 43 42 43 43 44 45 47 48 48 47 46 46 46 46 46 46 46 46
36 37 38 39 40 38 37 36 33 42 38 39 42 41 43 44 48 48 47 46 45 45 45 45 45 45 45
36 37 37 39 39 37 37 35 35 39 39 35 40 38 42 46 47 47 46 45 44 44 44 44 44 44 44
40 40 41 41 40 39 38 37 37 38 39 32 38 37 40 41 46 46 45 45 44 44 44 44 44 44 44
44 44 44 44 43 38 34 32 31 34 38 34 34 33 36 37 40 45 45 44 44 44 44 43 43 43 41
39 40 42 41 44 38 35 32 31 29 34 30 31 31 29 33 34 38 38 42 43 43 42 42 42 38 36
36 37 38 37 36 36 35 33 30 29 35 32 30 30 30 30 32 33 36 36 36 37 40 40 41 41 35
34 33 33 32 32 33 34 34 35 32 34 35 29 30 29 29 29 30 32 34 34 33 33 38 39 40 41
30 31 31 31 33 33 34 34 33 33 36 34 32 31 29 27 28 30 30 31 32 30 32 32 33 34 32
30 31 32 31 30 31 30 30 28 30 31 31 32 31 28 29 29 28 29 27 31 32 32 32 33 34 33
30 30 30 30 30 31 29 28 27 27 28 32 33 31 32 30 27 28 27 29 30 30 30 29 31 32 33
30 29 28 27 28 28 29 26 26 26 26 28 29 27 28 30 35 29 29 29 30 30 30 27 28 32 33
29 27 27 28 28 27 27 26 25 25 26 28 28 27 23 20 28 38 25 28 28 28 29 28 27 29 32

GFSFLT2_sfc_temp_222.txt.gz
Temp
40 40 40 39 41 42 43 42 42 50 52 52 51 51 51 50 50 50 50 50 50 50 50 51 51 51 52
37 37 38 39 39 38 44 47 42 49 51 51 51 50 50 50 50 50 50 49 49 48 49 49 50 50 51
37 38 37 38 37 38 39 38 45 48 50 50 50 50 50 50 50 50 49 49 48 48 48 48 49 49 49
35 35 36 38 37 35 35 38 38 45 46 47 48 48 48 49 49 47 48 48 48 48 48 47 47 48 48
34 33 34 34 34 35 34 34 35 36 36 37 38 38 39 44 45 46 48 48 47 47 46 46 46 46 47
33 32 32 33 35 34 32 30 28 36 32 34 36 35 37 37 45 47 47 47 47 46 46 46 45 45 46
32 32 32 35 34 32 31 30 30 35 32 31 33 33 37 41 44 46 46 46 46 46 45 45 45 45 45
35 35 35 37 35 35 32 31 31 33 33 29 31 31 34 34 42 44 44 45 46 45 45 45 44 44 44
44 44 44 44 43 34 30 27 26 28 31 28 28 29 32 33 36 42 43 43 43 44 44 43 43 43 40
36 37 39 37 42 32 29 24 26 24 30 29 30 29 28 29 30 35 33 40 42 42 42 42 41 37 36
32 32 32 32 30 30 29 26 22 25 31 32 29 29 28 27 26 29 33 32 33 36 39 40 40 40 34
30 29 28 27 27 29 31 33 33 32 34 33 28 28 28 27 27 31 31 32 31 30 31 35 38 39 39
27 26 26 25 30 31 32 32 32 30 33 32 25 26 29 27 27 28 29 31 31 27 30 30 30 32 30
26 26 26 25 28 30 29 29 22 26 29 28 29 31 27 28 29 27 30 26 29 29 30 30 31 32 31
25 24 26 28 29 30 27 20 23 18 22 26 28 27 28 27 25 27 27 29 30 28 28 27 29 30 31
26 28 27 27 25 25 23 18 17 19 19 23 24 24 27 26 33 25 25 25 28 28 27 26 27 30 31
25 26 27 24 25 20 20 22 23 20 21 21 17 18 20 20 27 36 23 26 26 25 27 26 25 29 30